{"data":{"norad_id":58692,"epoch":"2026-09-22T17:44:20.434560Z","epoch_age_seconds":55024,"freshness":"FRESH","line1":"1 58692U 23212B   26265.73912540 -.00000103  00000+0  44982-4 0  9997","line2":"2 58692  49.9995 346.6858 0000683  65.0438 295.0510 13.41460799134341","mean_motion":13.41460799,"eccentricity":6.83e-5,"inclination_deg":49.9995,"raan_deg":346.6858,"arg_perigee_deg":65.0438,"mean_anomaly_deg":295.051,"bstar":4.4982e-5,"rev_number":13434,"period_min":107.34566385193,"perigee_km":1103.3315395336,"apogee_km":1104.3535779414,"semimajor_km":7481.9795587375,"source":"CELESTRAK","updated_at":"2026-09-23T09:00:18.893150Z"}}